Location: Newark
(13.8117°N, 3.6025°W)
Time: 13:26:08
(UTC+00:00)

Tiros 1 despin weight - All Passes

Search period start: 23 August 2019 00:00
Search period end: 02 September 2019 00:00
Orbit: 594 x 642 km, 48.2° (Epoch: 22 August)

Date Brightness Start Highest point End Pass type
(mag) Time Alt. Az. Time Alt. Az. Time Alt. Az.
23 Aug - 07:26:43 10° NW 07:31:22 85° SW 07:36:04 10° SE daylight
23 Aug - 19:43:23 10° SSE 19:45:50 15° SE 19:48:15 10° E visible
23 Aug - 21:22:56 10° WSW 21:27:06 41° NW 21:31:16 10° NNE night (unlit)
24 Aug - 06:02:45 10° N 06:06:24 23° NE 06:10:04 10° E daylight
24 Aug - 07:43:45 10° WNW 07:47:53 32° SW 07:52:02 10° S daylight
24 Aug - 19:58:12 10° SSW 20:02:18 38° SE 20:06:23 10° ENE visible
24 Aug - 21:40:55 10° W 21:43:49 17° NW 21:46:44 10° N night (unlit)
25 Aug - 06:18:33 10° NNW 06:23:04 55° NE 06:27:38 10° SE daylight
25 Aug - 08:02:26 10° WSW 08:04:22 12° SW 08:06:19 10° SSW daylight
25 Aug - 20:14:26 10° SW 20:18:49 75° NW 20:23:12 10° NE visible
26 Aug - 04:55:33 10° N 04:57:59 14° NE 05:00:25 10° ENE visible
26 Aug - 06:35:06 10° NW 06:39:38 56° SW 06:44:12 10° SSE daylight
26 Aug - 18:50:40 10° S 18:54:05 22° SE 18:57:30 10° ENE visible
26 Aug - 20:31:40 10° WSW 20:35:27 28° NW 20:39:14 10° NNE visible
27 Aug - 05:10:37 10° NNW 05:14:44 32° NE 05:18:54 10° ESE visible
27 Aug - 06:52:36 10° WNW 06:56:07 21° SW 06:59:40 10° S daylight
27 Aug - 19:06:14 10° SSW 19:10:35 60° SE 19:14:55 10° NE visible
27 Aug - 20:50:36 10° WNW 20:52:14 12° NW 20:53:52 10° NNW visible
28 Aug - 05:26:44 10° NW 05:31:21 83° NE 05:36:01 10° SE visible
28 Aug - 17:43:58 10° SSE 17:45:52 13° SE 17:47:47 10° ESE daylight
28 Aug - 19:22:53 10° WSW 19:27:08 48° NW 19:31:23 10° NNE visible
29 Aug - 04:03:01 10° N 04:06:21 20° NE 04:09:44 10° E visible
29 Aug - 05:43:39 10° WNW 05:47:52 36° SW 05:52:09 10° SSE daylight
29 Aug - 17:58:22 10° SSW 18:02:21 33° SE 18:06:20 10° ENE daylight
29 Aug - 19:40:38 10° W 19:43:49 19° NW 19:47:01 10° N visible
30 Aug - 04:18:39 10° NNW 04:23:03 47° NE 04:27:30 10° ESE visible
30 Aug - 06:01:53 10° W 06:04:22 14° SW 06:06:52 10° SSW daylight
30 Aug - 18:14:27 10° SW 18:18:52 87° NW 18:23:16 10° NE daylight
31 Aug - 02:56:07 10° NNE 02:57:56 12° NE 02:59:44 10° ENE visible
31 Aug - 04:35:05 10° NW 04:39:37 65° SW 04:44:12 10° SSE visible
31 Aug - 16:50:57 10° S 16:54:08 19° SE 16:57:18 10° E daylight
31 Aug - 18:31:31 10° WSW 18:35:28 32° NW 18:39:25 10° NNE daylight
01 Sep - 03:10:48 10° NNW 03:14:43 28° NE 03:18:40 10° ESE visible
01 Sep - 04:52:24 10° WNW 04:56:07 24° SW 04:59:53 10° S visible
01 Sep - 17:06:18 10° SSW 17:10:38 52° SE 17:14:55 10° NE daylight
01 Sep - 18:50:01 10° WNW 18:52:14 13° NW 18:54:26 10° NNW visible
